CW9927 Weather Reports


time (UTC)temp
C
wind
direction
speed
KPH
gust
KPH
rain 1hr
cm
rain 24hr
cm
rain mn
cm
humidity
%
barometer
mb
20260505034316 13 0.0 0.0 0.00 0.00 0.00 71 1015.2
20260505033315 13 0.0 0.0 0.00 0.00 0.00 71 1015.1
20260505032315 13 0.0 0.0 0.00 0.00 0.00 71 1015.2
20260505031416 13 0.0 0.0 0.00 0.00 0.00 70 1015.2
20260505030315 13 0.0 0.0 0.00 0.00 0.00 70 1015.2
20260505025315 14 0.0 0.0 0.00 0.00 0.00 69 1015.1
20260505024317 14 0.0 0.0 0.00 0.00 0.00 68 1015.0
20260505023317 14 0.0 0.0 0.00 0.00 0.00 68 1015.1
20260505022317 14 0.0 0.0 0.00 0.00 0.00 68 1015.1
20260505021317 14 0.0 0.0 0.00 0.00 0.00 68 1014.9
20260505020358 15 0.0 0.0 0.00 0.00 0.00 68 1014.8
20260505015317 15 0.0 0.0 0.00 0.00 0.00 67 1014.8
20260505014318 15 0.0 1.6 0.00 0.00 0.00 66 1014.7
20260505013317 15 0.0 0.0 0.00 0.00 0.00 65 1014.8
20260505012318 15 0.0 0.0 0.00 0.00 0.00 65 1014.9
20260505011317 16 0.0 1.6 0.00 0.00 0.00 64 1015.0
20260505010337 16 0.0 1.6 0.00 0.00 0.00 63 1015.0
20260505010216 16 0.0 0.0 0.00 0.00 0.00 63 1015.0
20260505005118 16 0.0 1.6 0.00 0.00 0.00 63 1015.2
20260505004118 16 0.0 1.6 0.00 0.00 0.00 65 1015.2
20260505003119 16 0.0 0.0 0.00 0.00 0.00 65 1015.2
20260505002116 16 0.0 0.0 0.00 0.00 0.00 65 1015.2
20260505001117 16 0.0 0.0 0.00 0.00 0.00 65 1015.2
20260505000118 17 0.0 0.0 0.00 0.00 0.00 65 1015.0
20260504235118 17 0.0 3.2 0.00 0.00 0.00 63 1015.0
20260504234117 17 0.0 3.2 0.00 0.00 0.00 60 1014.9
20260504233138 17 0.0 1.6 0.00 0.00 0.00 60 1014.9
20260504232118 17 0.0 1.6 0.00 0.00 0.00 59 1014.9
20260504231118 17 0.0 1.6 0.00 0.00 0.00 59 1014.9
20260504230202 17 0.0 0.0 0.00 0.00 0.00 58 1014.9
20260504225138 17 0.0 0.0 0.00 0.00 0.00 56 1015.0
20260504224117 18 0.0 1.6 0.00 0.00 0.00 55 1015.0
20260504223117 18 0.0 1.6 0.00 0.00 0.00 54 1015.0
20260504222138 18 0.0 0.0 0.00 0.00 0.00 52 1015.0
20260504221118 19 0.0 0.0 0.00 0.00 0.00 50 1015.1
20260504220137 19 0.0 1.6 0.00 0.00 0.00 54 1015.1
20260504215118 20 0.0 1.6 0.00 0.00 0.00 53 1015.2
20260504214117 19 0.0 0.0 0.00 0.00 0.00 53 1015.2
20260504213117 20 0.0 1.6 0.00 0.00 0.00 51 1015.3
20260504212118 20 0.0 0.0 0.00 0.00 0.00 50 1015.4
20260504211137 19 0.0 0.0 0.00 0.00 0.00 54 1015.4
20260504210117 19 0.0 0.0 0.00 0.00 0.00 51 1015.6
20260504205117 19 0.0 0.0 0.00 0.00 0.00 54 1015.4
20260504204137 19 0.0 0.0 0.00 0.00 0.00 52 1015.4
20260504203117 18 0.0 0.0 0.00 0.00 0.00 54 1015.5
20260504202118 18 0.0 0.0 0.00 0.00 0.00 54 1015.5
20260504201118 18 0.0 0.0 0.00 0.00 0.00 55 1015.7
20260504200118 18 0.0 0.0 0.00 0.00 0.00 56 1015.7
20260504195116 18 0.0 0.0 0.00 0.00 0.00 56 1015.7
20260504194117 18 0.0 0.0 0.00 0.00 0.00 58 1015.9
20260504193117 17 0.0 0.0 0.00 0.00 0.00 59 1016.0
20260504192118 17 0.0 0.0 0.00 0.00 0.00 60 1016.0
20260504191117 17 0.0 0.0 0.00 0.00 0.00 61 1016.1
20260504185138 17 0.0 0.0 0.00 0.00 0.00 61 1016.1
20260504184117 17 0.0 0.0 0.00 0.00 0.00 60 1016.2
20260504183118 17 0.0 0.0 0.00 0.00 0.00 59 1016.2
20260504182137 17 0.0 0.0 0.00 0.00 0.00 62 1016.1
20260504181117 16 0.0 0.0 0.00 0.00 0.00 61 1016.3
20260504180118 17 0.0 0.0 0.00 0.00 0.00 61 1016.4
20260504175117 17 0.0 0.0 0.00 0.00 0.00 61 1016.3
20260504174117 16 0.0 0.0 0.00 0.00 0.00 63 1016.1
20260504173120 15 0.0 0.0 0.00 0.00 0.00 66 1016.0
20260504172117 15 0.0 0.0 0.00 0.00 0.00 66 1016.1
20260504171117 15 0.0 0.0 0.00 0.00 0.00 69 1016.1
20260504170118 15 0.0 0.0 0.00 0.00 0.00 71 1016.0
20260504160118 14 0.0 0.0 0.00 0.00 0.00 77 1016.3
20260504151117 12 0.0 0.0 0.00 0.00 0.00 85 1016.3
20260504150117 11 0.0 0.0 0.00 0.00 0.00 86 1016.4
20260504141117 10 0.0 0.0 0.00 0.00 0.00 90 1015.9
20260504140117 9 0.0 0.0 0.00 0.00 0.00 89 1016.0
20260504120117 10 0.0 0.0 0.00 0.00 0.00 90 1015.6
20260504110117 10 0.0 0.0 0.00 0.00 0.00 90 1015.8
20260504100117 9 0.0 0.0 0.00 0.00 0.00 89 1015.8
20260504090117 9 0.0 0.0 0.00 0.00 0.00 87 1015.8
20260504081158 9 0.0 0.0 0.00 0.00 0.00 87 1016.1
20260504080117 9 0.0 0.0 0.00 0.00 0.00 86 1016.1
20260504070218 10 0.0 0.0 0.00 0.00 0.00 84 1015.9
20260504050419 11 0.0 0.0 0.00 0.00 0.00 79 1015.8
20260504045436 11 0.0 0.0 0.00 0.00 0.00 78 1015.7
20260504044457 11 0.0 0.0 0.00 0.00 0.00 78 1015.6
20260504043436 12 0.0 0.0 0.00 0.00 0.00 78 1015.5
20260504042416 12 0.0 0.0 0.00 0.00 0.00 77 1015.4
20260504041416 12 0.0 0.0 0.00 0.00 0.00 77 1015.2
20260504040421 12 0.0 0.0 0.00 0.00 0.00 76 1015.2
20260504035416 12 0.0 0.0 0.00 0.00 0.00 75 1015.1